Weather in Stanovoy Kolodez

Russia / Oryol Oblast     52°49′15″N   36°15′50″E
temp.,
°C
wind,
m/s
gust,
m/s
humid.,
%
clouds,
%
prec.,
mm/h
press.,
hPa
HPBL,
m
18 september, sat
sat1800:00+7e61187100 2.7 1018466
03:00+7e61282100 2.9 1018491
06:00+7e81485100 1.2 1017583
09:00+6e91689100 7.0 1017572
12:00+6ese91792100 8.3 1017575
15:00+6ese91694100 14.7 1017543
18:00+6e91795100 6.3 1016532
21:00+7e101994100 11.0 1015560
19 september, sun
sun1900:00+7ese92094100 0.8 1014651
03:00+7ese101891100 5.3 1013685
06:00+7ese91685100 1.1 1013577
09:00+7ese91691100 3.2 1013519
12:00+7ese91594100 2.9 1012660
15:00+7ese81494100 6.8 1012631
18:00+8ese61295100 5.6 1011593
21:00+8ese4898100 5.6 1010377
20 september, mon
mon2000:00+9e4798100 0.1 1010345
03:00+8e4798100 0.1 1009276
06:00+8ene4898100 0.0 1008318
09:00+9e5995100 0.0 1008404
12:00+9e51097100 4.3 1007410
15:00+10ene4797100 7.1 1007351
18:00+10s2599100 2.1 1007290
21:00+9sw4696100 4.1 1008338
21 september, tue
tue2100:00+8ssw3695100 0.6 1008382
03:00+8ssw3794100 0.7 1008375
06:00+8s3794100 0.3 1008436
09:00+8sse3695100 1.1 1008410
12:00+8sw2493100 1.5 1008298
15:00+7sw5894100 2.3 1009511
18:00+6sw5794100 0.9 1010562
21:00+5sw4796100 1.4 1010466
22 september, wed
wed2200:00+5wsw4695100 0.4 1011420
03:00+5wsw4697100 1.2 1010301
06:00+6wnw4798100 1.0 1010410
09:00+5wnw5895100 1.5 1011437
12:00+5wnw5795100 0.1 1012558
15:00+4w4696100 0.1 1012641
18:00+4w4597100 0.2 1012581
21:00+4wsw3497100 0.9 1012546